{"data":{"norad_id":48318,"epoch":"2026-09-20T00:42:25.452000Z","epoch_age_seconds":74419,"freshness":"FRESH","line1":"1 48318U 21036AU  26263.02946125  .00000479  00000+0  27216-4 0  9995","line2":"2 48318  53.1587 277.4402 0001360  97.2584 262.8572 15.31689355297800","mean_motion":15.31689355,"eccentricity":0.000136,"inclination_deg":53.1587,"raan_deg":277.4402,"arg_perigee_deg":97.2584,"mean_anomaly_deg":262.8572,"bstar":2.7216e-5,"rev_number":29780,"period_min":94.013841337952,"perigee_km":469.84027601355,"apogee_km":471.70317918746,"semimajor_km":6848.9087276005,"source":"CELESTRAK","updated_at":"2026-09-20T09:00:38.935353Z"}}